FW6576 Weather Reports


time (UTC)temp
F
wind
direction
speed
knots
gust
knots
rain 1hr
in
rain 24hr
in
rain mn
in
humidity
%
barometer
mb
20260507200728 60 0 1.7 5.2 0.00 0.15 1.58 71 1000.9
20260507200217 59 90 0.9 5.2 0.00 0.15 1.58 71 1000.4
20260507195707 59 338 0.9 3.5 0.00 0.15 1.58 71 999.9
20260507195157 59 45 0.9 3.5 0.00 0.15 1.58 71 999.9
20260507194657 59 338 0.9 3.5 0.00 0.15 1.58 72 999.8
20260507194137 59 45 1.7 3.5 0.00 0.15 1.58 72 1000.1
20260507193628 60 90 1.7 3.5 0.00 0.15 1.58 71 999.8
20260507192607 60 90 1.7 5.2 0.00 0.15 1.58 72 999.8
20260507192056 60 23 1.7 3.5 0.00 0.15 1.58 71 999.8
20260507191547 60 45 0.9 3.5 0.00 0.15 1.58 71 1000.3
20260507191039 60 45 0.9 1.7 0.00 0.15 1.58 72 1000.7
20260507190527 60 0 1.7 3.5 0.00 0.15 1.58 72 1001.1
20260507190017 60 23 0.9 3.5 0.00 0.15 1.58 72 1001.5
20260507184955 60 90 1.7 6.1 0.00 0.15 1.58 73 1001.3
20260507184448 60 23 1.7 6.1 0.00 0.15 1.58 73 1001.4
20260507183937 60 23 0.9 3.5 0.00 0.15 1.58 73 1001.7
20260507183427 60 90 0.9 3.5 0.00 0.15 1.58 73 1001.6
20260507182914 60 0 1.7 3.5 0.00 0.15 1.58 74 1002.1
20260507182406 60 315 1.7 5.2 0.00 0.15 1.58 73 1002.3
20260507181851 60 90 0.9 7.0 0.00 0.15 1.58 73 1002.7
20260507181340 60 68 0.9 7.0 0.00 0.15 1.58 73 1003.1
20260507180833 60 45 0.9 3.5 0.00 0.15 1.58 73 1003.2
20260507180333 60 45 1.7 3.5 0.00 0.15 1.58 74 1002.9
20260507175813 60 68 0.0 3.5 0.00 0.15 1.58 75 1003.0
20260507174245 60 68 0.0 3.5 0.00 0.15 1.58 76 1002.0
20260507173734 60 0 0.9 1.7 0.00 0.15 1.58 77 1001.6
20260507173224 59 68 0.9 1.7 0.00 0.15 1.58 78 1001.1
20260507172712 59 90 0.9 1.7 0.00 0.15 1.58 78 1000.8
20260507172202 59 68 0.9 1.7 0.00 0.15 1.58 77 1000.8
20260507171653 60 68 0.9 1.7 0.00 0.15 1.58 77 1001.3
20260507171143 60 23 0.0 3.5 0.00 0.15 1.58 77 1001.8
20260507170632 60 45 0.9 3.5 0.00 0.15 1.58 76 1001.6
20260507170124 60 68 0.9 1.7 0.00 0.15 1.58 75 1002.4
20260507165614 60 0 0.9 1.7 0.00 0.15 1.58 75 1002.5
20260507165102 60 68 0.9 3.5 0.00 0.15 1.58 75 1002.4
20260507164552 60 45 0.9 5.2 0.00 0.15 1.58 76 1003.0
20260507164041 61 68 1.7 5.2 0.00 0.15 1.58 76 1003.5
20260507163532 61 113 0.9 3.5 0.00 0.15 1.58 77 1003.2
20260507162510 61 68 0.0 3.5 0.00 0.15 1.58 77 1002.5
20260507162001 61 68 0.9 3.5 0.00 0.15 1.58 78 1001.8
20260507161451 61 338 0.0 3.5 0.00 0.15 1.58 78 1001.3
20260507160940 61 23 1.7 3.5 0.00 0.15 1.58 78 1001.3
20260507160432 61 68 0.9 3.5 0.00 0.15 1.58 78 1001.1
20260507155410 61 68 0.9 3.5 0.00 0.15 1.58 80 1001.4
20260507154900 61 90 0.0 3.5 0.00 0.15 1.58 81 1001.4
20260507154349 61 68 0.9 3.5 0.00 0.15 1.58 81 1001.9
20260507153840 61 68 0.9 3.5 0.00 0.15 1.58 82 1001.9
20260507152819 61 45 1.7 5.2 0.00 0.15 1.58 83 1001.5
20260507151759 61 45 0.0 3.5 0.00 0.15 1.58 84 1001.5
20260507150739 62 90 0.9 3.5 0.00 0.15 1.58 84 1002.2
20260507150229 62 23 0.9 3.5 0.00 0.15 1.58 84 1002.2
20260507145720 62 68 1.7 3.5 0.00 0.15 1.58 84 1002.5
20260507145209 63 45 1.7 3.5 0.00 0.15 1.58 84 1002.5
20260507144148 62 45 0.9 1.7 0.00 0.15 1.58 85 1002.4
20260507143640 62 90 0.9 1.7 0.00 0.15 1.58 85 1001.2
20260507143129 62 90 0.9 1.7 0.00 0.15 1.58 85 1001.5
20260507142618 62 113 0.0 1.7 0.00 0.15 1.58 85 1001.5
20260507142107 62 45 0.9 1.7 0.00 0.15 1.58 84 1001.1
20260507141558 62 23 1.7 3.5 0.00 0.15 1.58 84 1001.2
20260507141047 63 45 0.9 3.5 0.00 0.15 1.58 84 1001.1
20260507140544 63 68 0.9 3.5 0.00 0.15 1.58 84 1001.8
20260507140027 63 338 0.9 3.5 0.00 0.15 1.58 84 1001.9
20260507135518 63 45 0.0 1.7 0.00 0.15 1.58 84 1001.8
20260507135007 63 68 0.0 1.7 0.00 0.15 1.58 84 1001.2
20260507134458 63 23 0.9 1.7 0.00 0.15 1.58 85 1001.6
20260507133948 62 68 0.0 3.5 0.00 0.15 1.58 85 1001.8
20260507133436 63 45 0.9 3.5 0.00 0.15 1.58 85 1002.5
20260507132926 63 45 0.9 1.7 0.00 0.15 1.58 85 1002.3
20260507131906 62 0 0.9 1.7 0.00 0.15 1.58 86 1002.9
20260507131356 62 68 0.0 1.7 0.00 0.15 1.58 87 1003.2
20260507130845 62 90 0.0 1.7 0.00 0.15 1.58 87 1003.7
20260507130337 62 68 0.0 1.7 0.00 0.15 1.58 88 1004.1
20260507125315 61 45 0.0 1.7 0.00 0.15 1.58 88 1002.9
20260507124255 61 45 0.0 3.5 0.00 0.15 1.58 89 1002.2
20260507123745 61 23 1.7 6.1 0.00 0.15 1.58 89 1001.7
20260507123234 61 0 0.0 6.1 0.00 0.15 1.58 89 1001.5
20260507122726 61 23 0.9 3.5 0.00 0.15 1.58 89 1001.8
20260507122217 61 45 1.7 3.5 0.00 0.15 1.58 89 1001.5
20260507120643 61 68 0.9 5.2 0.00 0.15 1.58 90 1002.0
20260507120133 61 45 0.9 3.5 0.00 0.15 1.58 90 1001.3
20260507115623 61 45 0.0 5.2 0.00 0.15 1.58 90 1000.9
20260507115114 61 45 0.9 6.1 0.00 0.15 1.58 91 1000.2
20260507114604 61 23 1.7 6.1 0.00 0.15 1.58 91 999.4
20260507114055 61 113 0.9 3.5 0.00 0.15 1.58 91 1000.0
20260507113546 61 68 0.0 1.7 0.00 0.15 1.58 91 1001.1
20260507113035 61 68 0.9 1.7 0.00 0.15 1.58 92 1001.5
20260507112524 61 90 0.0 1.7 0.00 0.15 1.58 94 1001.5
20260507112012 61 68 0.9 1.7 0.00 0.15 1.58 94 1001.4
20260507111503 61 45 0.0 3.5 0.00 0.15 1.58 95 1001.1
20260507110951 61 68 0.0 3.5 0.00 0.15 1.58 95 1000.7
20260507110442 61 45 0.0 3.5 0.00 0.15 1.58 96 1000.2
20260507105931 61 23 0.9 3.5 0.00 0.15 1.58 96 1000.0
20260507105422 61 68 0.9 3.5 0.00 0.15 1.58 96 999.8
20260507104911 62 68 0.9 3.5 0.00 0.15 1.58 96 999.9
20260507104402 62 45 0.9 3.5 0.00 0.15 1.58 97 999.8
20260507103852 62 90 0.0 3.5 0.00 0.15 1.58 97 1000.1
20260507103342 62 23 0.9 1.7 0.00 0.15 1.58 97 1000.7
20260507102831 62 23 0.9 1.7 0.00 0.15 1.58 97 1000.6
20260507102320 62 68 0.0 1.7 0.00 0.15 1.58 97 1000.7
20260507101810 62 45 0.0 1.7 0.00 0.15 1.58 97 1001.0
20260507101302 62 135 0.0 0.0 0.00 0.15 1.58 97 1001.2
20260507100750 62 0 0.0 1.7 0.00 0.15 1.58 97 1000.8
20260507100240 62 0 0.0 1.7 0.00 0.15 1.58 97 1000.3
20260507095732 62 45 0.9 1.7 0.00 0.15 1.58 97 999.7
20260507095219 62 113 0.0 1.7 0.00 0.15 1.58 97 999.9
20260507094710 62 68 0.0 1.7 0.00 0.15 1.58 97 1000.3
20260507094159 63 68 0.0 1.7 0.00 0.15 1.58 97 1000.3
20260507093141 63 23 0.0 1.7 0.00 0.15 1.58 97 999.7
20260507092629 63 68 0.0 1.7 0.00 0.15 1.58 97 999.4
20260507092121 63 68 0.9 1.7 0.00 0.15 1.58 97 999.1
20260507091608 63 68 0.0 1.7 0.00 0.15 1.58 97 999.3
20260507091058 63 68 0.9 1.7 0.00 0.15 1.58 97 999.8
20260507090549 64 68 0.0 1.7 0.00 0.15 1.58 97 1000.7
20260507090038 64 45 0.0 1.7 0.00 0.15 1.58 97 1000.3
20260507085527 63 90 0.9 3.5 0.00 0.15 1.58 96 999.8
20260507085019 64 90 0.9 3.5 0.00 0.15 1.58 96 999.8
20260507084512 64 90 0.0 1.7 0.00 0.15 1.58 96 1000.2
20260507083957 64 45 0.0 1.7 0.00 0.15 1.58 96 1000.3
20260507082937 64 45 0.0 1.7 0.01 0.15 1.58 96 999.5
20260507080346 64 90 0.9 3.5 0.01 0.15 1.58 96 999.1
20260507074816 63 90 0.0 3.5 0.02 0.15 1.58 96 998.9
20260507074305 63 90 0.9 3.5 0.02 0.15 1.58 96 999.6
20260507073755 64 158 0.9 3.5 0.04 0.15 1.58 97 999.7
20260507073245 64 113 1.7 3.5 0.05 0.15 1.58 97 999.3
20260507072735 64 293 0.9 3.5 0.05 0.14 1.57 97 1000.2
20260507071717 64 45 1.7 6.1 0.08 0.14 1.57 97 999.8
20260507071205 64 225 1.7 6.1 0.12 0.14 1.57 97 1000.3
20260507070654 64 270 0.9 3.5 0.14 0.14 1.57 98 1000.0
20260507070144 64 293 0.9 3.5 0.14 0.14 1.57 98 1000.7
20260507065124 64 158 0.9 5.2 0.13 0.13 1.56 98 1001.0
20260507064615 64 293 0.9 5.2 0.13 0.13 1.56 98 1001.2
20260507063553 65 293 0.0 1.7 0.12 0.12 1.55 98 1002.7
20260507062533 64 113 0.0 1.7 0.08 0.08 1.51 98 1003.0
20260507062023 64 158 0.9 1.7 0.07 0.07 1.50 98 1003.0
20260507061513 64 113 0.0 1.7 0.04 0.04 1.46 98 1002.8
20260507061003 65 68 0.0 0.0 0.01 0.01 1.44 98 1003.3
20260507060450 65 158 0.0 0.0 0.00 0.00 1.43 98 1003.7
20260507060226 65 158 0.0 0.0 0.00 0.00 1.43 98 1003.7
20260507055020 65 45 0.0 1.7 0.04 1.63 1.41 98 1003.3
20260507054514 65 23 0.0 1.7 0.09 1.63 1.41 98 1002.3
20260507054000 65 68 0.9 1.7 0.14 1.62 1.39 97 1002.1
20260507053449 65 90 0.0 1.7 0.19 1.61 1.38 97 1001.9
20260507052940 65 45 0.0 1.7 0.38 1.61 1.38 97 1001.7
20260507052431 65 68 1.7 1.7 0.56 1.61 1.38 97 1001.4
20260507051919 65 113 0.0 1.7 0.74 1.59 1.37 97 1001.4
20260507050349 65 270 0.0 1.7 1.25 1.59 1.37 97 1000.9
20260507045838 65 68 0.0 3.5 1.28 1.59 1.37 97 1001.1
20260507045329 65 90 0.0 3.5 1.29 1.59 1.37 97 1001.5
20260507044818 65 113 0.9 5.2 1.31 1.57 1.36 97 1001.3
20260507044308 66 248 0.9 5.2 1.26 1.52 1.30 97 1000.6
20260507043758 66 158 1.7 5.2 1.20 1.46 1.24 96 1000.5
20260507043249 67 68 0.9 1.7 1.09 1.35 1.12 96 1001.8
20260507042737 67 23 0.9 3.5 0.87 1.13 0.91 96 1003.1
20260507042227 67 0 1.7 3.5 0.67 0.93 0.71 95 1002.4
20260507041719 67 180 1.7 3.5 0.59 0.85 0.63 95 1000.8
20260507040659 69 113 1.7 6.1 0.27 0.50 0.27 92 1001.3
20260507040149 70 113 1.7 5.2 0.09 0.32 0.09 90 1001.0
20260507035127 73 180 1.7 3.5 0.08 0.31 0.08 92 999.3
20260507034618 73 135 0.0 1.7 0.04 0.26 0.04 92 999.8
20260507034107 73 293 0.0 1.7 0.04 0.26 0.04 92 999.1
20260507033556 73 293 0.0 1.7 0.04 0.26 0.04 91 999.1
20260507033047 73 315 0.0 1.7 0.04 0.26 0.04 91 999.4
20260507032537 73 338 0.0 1.7 0.04 0.26 0.04 91 998.9
20260507031007 75 293 0.0 1.7 0.01 0.24 0.01 87 999.8
20260507030457 75 293 0.0 1.7 0.00 0.22 0.00 86 1000.0
20260507025947 75 338 0.0 1.7 0.00 0.22 0.22 86 999.7
20260507025434 75 293 0.0 1.7 0.00 0.22 0.22 86 999.9
20260507024924 75 293 0.0 1.7 0.00 0.22 0.22 86 1000.1
20260507024415 75 315 0.0 3.5 0.00 0.22 0.22 86 1000.2
20260507023905 75 23 0.9 3.5 0.00 0.22 0.22 86 1000.1
20260507023357 75 23 0.0 3.5 0.00 0.22 0.22 86 999.9
20260507022846 75 338 0.9 3.5 0.00 0.22 0.22 86 1000.0
20260507021824 75 293 0.0 3.5 0.00 0.22 0.22 85 1000.4
20260507021316 75 270 0.0 3.5 0.00 0.22 0.22 85 1000.3
20260507020804 75 68 0.9 1.7 0.00 0.22 0.22 85 1000.4
20260507015744 76 180 0.0 3.5 0.00 0.22 0.22 84 1000.7
20260507015233 76 248 0.0 6.1 0.00 0.22 0.22 84 1000.9
20260507013702 76 315 0.9 3.5 0.00 0.22 0.22 84 1000.6
20260507013152 76 90 0.9 3.5 0.00 0.22 0.22 83 1000.9
20260507012643 76 293 1.7 3.5 0.00 0.22 0.22 83 1001.2
20260507011624 76 0 1.7 6.1 0.00 0.22 0.22 84 1001.0
20260507011117 76 23 0.0 3.5 0.00 0.22 0.22 84 1000.9
20260507010603 76 23 0.0 3.5 0.00 0.22 0.22 84 1001.0
20260507010051 76 135 0.9 3.5 0.00 0.22 0.22 84 1001.2
20260507005031 75 270 1.7 3.5 0.00 0.22 0.22 85 1001.1
20260507004529 75 113 0.0 3.5 0.00 0.22 0.22 86 1001.1
20260507004012 75 68 0.9 5.2 0.00 0.22 0.22 86 1001.3
20260507003501 75 270 0.9 5.2 0.00 0.22 0.22 86 1001.1
20260507002953 75 248 0.9 7.0 0.00 0.22 0.22 86 1001.3
20260507002443 74 293 0.9 7.0 0.00 0.22 0.22 86 1001.4
20260507001931 74 23 0.0 3.5 0.00 0.22 0.22 87 1000.9
20260507000911 74 90 0.9 3.5 0.00 0.22 0.22 88 1001.0
20260507000401 74 68 0.0 1.7 0.00 0.22 0.22 88 1001.4
20260506235850 74 90 0.9 3.5 0.00 0.22 0.22 88 1001.3
20260506235344 74 135 0.9 3.5 0.00 0.22 0.22 87 1001.4
20260506234319 74 293 0.9 5.2 0.00 0.22 0.22 87 1001.1
20260506233810 74 0 0.0 3.5 0.00 0.22 0.22 88 1000.7
20260506232749 73 135 0.9 3.5 0.00 0.22 0.22 88 1000.2
20260506231730 73 90 0.0 5.2 0.00 0.22 0.22 88 1000.6
20260506231218 73 45 1.7 5.2 0.00 0.22 0.22 88 1000.7
20260506230158 72 0 0.0 3.5 0.00 0.22 0.22 88 1000.8
20260506225648 72 158 0.9 3.5 0.00 0.22 0.22 88 1001.4
20260506225138 72 338 0.0 1.7 0.00 0.22 0.22 88 1001.5
20260506224627 72 338 0.9 1.7 0.00 0.22 0.22 87 1001.6
20260506224118 72 0 0.0 3.5 0.00 0.22 0.22 87 1001.6
20260506223607 72 338 0.9 3.5 0.00 0.22 0.22 87 1001.8
20260506223058 72 0 0.0 3.5 0.00 0.22 0.22 87 1001.7
20260506222548 72 293 0.0 3.5 0.00 0.22 0.22 87 1001.9
20260506222039 72 338 0.0 3.5 0.00 0.22 0.22 87 1001.9
20260506221526 72 338 0.9 3.5 0.00 0.22 0.22 87 1002.2
20260506221022 72 0 0.9 3.5 0.00 0.22 0.22 87 1002.2
20260506215956 71 0 1.7 3.5 0.00 0.22 0.22 88 1002.6
20260506215446 71 23 0.0 1.7 0.00 0.22 0.22 88 1002.7
20260506214940 71 338 0.0 1.7 0.00 0.22 0.22 88 1003.1
20260506214425 71 45 0.0 1.7 0.00 0.22 0.22 88 1003.0
20260506213915 71 135 0.0 1.7 0.00 0.22 0.22 88 1002.9
20260506213405 71 0 0.0 1.7 0.00 0.22 0.22 88 1003.0
20260506212855 71 0 0.0 1.7 0.00 0.22 0.22 88 1003.3
20260506212347 71 338 0.0 1.7 0.00 0.22 0.22 88 1003.2
20260506211837 71 315 0.0 1.7 0.00 0.22 0.22 88 1003.3
20260506211325 72 293 0.0 1.7 0.00 0.22 0.22 87 1003.1
20260506210817 72 270 0.0 1.7 0.00 0.22 0.22 87 1003.1
20260506210303 72 293 0.0 1.7 0.00 0.22 0.22 87 1003.1
20260506205754 72 270 0.9 1.7 0.00 0.22 0.22 87 1003.3
20260506205244 72 203 0.0 3.5 0.00 0.22 0.22 86 1003.3
20260506204736 72 248 0.0 3.5 0.00 0.22 0.22 86 1003.3
20260506204230 72 270 0.0 3.5 0.00 0.22 0.22 86 1003.1
20260506203713 72 270 0.9 3.5 0.00 0.22 0.22 86 1003.3
20260506203205 72 158 0.0 1.7 0.00 0.22 0.22 86 1003.1
20260506202653 72 248 0.9 1.7 0.00 0.22 0.22 85 1003.4
20260506202153 72 135 0.9 1.7 0.00 0.22 0.22 85 1003.6
20260506201634 73 158 0.0 1.7 0.00 0.22 0.22 85 1003.6
20260506201123 73 315 0.0 3.5 0.00 0.22 0.22 86 1003.5